Time,TemperatureF,DewpointF,PressureIn,WindDirection,WindDirectionDegrees,WindSpeedMPH,WindSpeedGustMPH,Humidity,HourlyPrecipIn,Conditions,Clouds,dailyrainin,SoftwareType,DateUTC
2013-11-12 00:01:00,41.7,34.0,30.43,NNE,22,15.0,-999.0,74,-99.99,,,0.00,Acu-Link.com,2013-11-12 06:01:00,
2013-11-12 00:16:00,41.7,33.7,30.44,NNE,22,11.4,-999.0,73,-99.99,,,0.00,Acu-Link.com,2013-11-12 06:16:00,
2013-11-12 00:31:00,41.4,33.1,30.45,NE,45,15.0,-999.0,72,-99.99,,,0.00,Acu-Link.com,2013-11-12 06:31:00,
2013-11-12 00:47:00,40.6,32.3,30.47,NNE,22,18.6,-999.0,72,-99.99,,,0.00,Acu-Link.com,2013-11-12 06:47:00,
2013-11-12 01:02:00,39.7,31.1,30.48,NNE,22,18.6,-999.0,71,-99.99,,,0.00,Acu-Link.com,2013-11-12 07:02:00,
2013-11-12 01:17:00,39.6,31.0,30.49,NNE,22,17.1,-999.0,71,-99.99,,,0.00,Acu-Link.com,2013-11-12 07:17:00,
2013-11-12 01:32:00,39.0,30.4,30.50,NNW,337,10.9,-999.0,71,-99.99,,,0.00,Acu-Link.com,2013-11-12 07:32:00,
2013-11-12 01:47:00,38.8,30.2,30.51,North,0,16.6,-999.0,71,-99.99,,,0.00,Acu-Link.com,2013-11-12 07:47:00,
2013-11-12 02:02:00,38.7,30.1,30.52,NNE,22,9.9,-999.0,71,-99.99,,,0.00,Acu-Link.com,2013-11-12 08:02:00,
2013-11-12 02:17:00,37.6,29.1,30.54,NNE,22,14.5,-999.0,71,-99.99,,,0.00,Acu-Link.com,2013-11-12 08:17:00,
2013-11-12 02:32:00,37.2,28.7,30.55,NNE,22,15.0,-999.0,71,-99.99,,,0.00,Acu-Link.com,2013-11-12 08:32:00,
2013-11-12 02:47:00,36.5,26.6,30.56,NNW,337,22.7,-999.0,67,-99.99,,,0.00,Acu-Link.com,2013-11-12 08:47:00,
2013-11-12 03:03:00,36.1,26.2,30.57,NNE,22,11.9,-999.0,67,-99.99,,,0.00,Acu-Link.com,2013-11-12 09:03:00,
2013-11-12 03:18:00,35.6,25.4,30.58,NNE,22,18.1,-999.0,66,-99.99,,,0.00,Acu-Link.com,2013-11-12 09:18:00,
2013-11-12 03:33:00,34.5,24.0,30.59,North,0,10.4,-999.0,65,-99.99,,,0.00,Acu-Link.com,2013-11-12 09:33:00,
2013-11-12 03:48:00,33.8,23.3,30.60,NNE,22,10.9,-999.0,65,-99.99,,,0.00,Acu-Link.com,2013-11-12 09:48:00,
2013-11-12 04:03:00,32.5,22.1,30.61,NE,45,14.5,-999.0,65,-99.99,,,0.00,Acu-Link.com,2013-11-12 10:03:00,
2013-11-12 04:18:00,31.5,21.5,30.62,NNE,22,15.0,-999.0,66,-99.99,,,0.00,Acu-Link.com,2013-11-12 10:18:00,
2013-11-12 04:33:00,31.1,21.4,30.63,NE,45,12.5,-999.0,67,-99.99,,,0.00,Acu-Link.com,2013-11-12 10:33:00,
2013-11-12 04:48:00,30.6,21.7,30.65,NNE,22,15.0,-999.0,69,-99.99,,,0.00,Acu-Link.com,2013-11-12 10:48:00,
2013-11-12 05:04:00,30.0,21.1,30.65,NNW,337,13.5,-999.0,69,-99.99,,,0.00,Acu-Link.com,2013-11-12 11:04:00,
2013-11-12 05:19:00,30.0,21.1,30.67,North,0,14.5,-999.0,69,-99.99,,,0.00,Acu-Link.com,2013-11-12 11:19:00,
2013-11-12 05:34:00,29.8,21.2,30.67,NNW,337,14.5,-999.0,70,-99.99,,,0.00,Acu-Link.com,2013-11-12 11:34:00,
2013-11-12 05:49:00,29.7,21.1,30.68,NNE,22,10.9,-999.0,70,-99.99,,,0.00,Acu-Link.com,2013-11-12 11:49:00,
2013-11-12 06:04:00,29.3,21.1,30.69,NNE,22,11.9,-999.0,71,-99.99,,,0.00,Acu-Link.com,2013-11-12 12:04:00,
2013-11-12 06:19:00,29.3,21.4,30.70,NNE,22,9.9,-999.0,72,-99.99,,,0.00,Acu-Link.com,2013-11-12 12:19:00,
2013-11-12 06:34:00,28.9,21.0,30.70,NNE,22,9.9,-999.0,72,-99.99,,,0.00,Acu-Link.com,2013-11-12 12:34:00,
2013-11-12 06:49:00,28.8,20.6,30.72,NNW,337,9.9,-999.0,71,-99.99,,,0.00,Acu-Link.com,2013-11-12 12:49:00,
2013-11-12 07:04:00,29.1,19.9,30.71,NNE,22,13.5,-999.0,68,-99.99,,,0.00,Acu-Link.com,2013-11-12 13:04:00,
2013-11-12 07:20:00,29.3,19.4,30.72,NNE,22,10.9,-999.0,66,-99.99,,,0.00,Acu-Link.com,2013-11-12 13:20:00,
2013-11-12 07:35:00,29.8,20.2,30.72,NNE,22,10.4,-999.0,67,-99.99,,,0.00,Acu-Link.com,2013-11-12 13:35:00,
2013-11-12 07:50:00,28.8,18.5,30.73,NNW,337,7.3,-999.0,65,-99.99,,,0.00,Acu-Link.com,2013-11-12 13:50:00,
2013-11-12 08:05:00,30.4,19.3,30.74,NE,45,10.9,-999.0,63,-99.99,,,0.00,Acu-Link.com,2013-11-12 14:05:00,
2013-11-12 08:20:00,30.4,19.3,30.74,NNE,22,16.6,-999.0,63,-99.99,,,0.00,Acu-Link.com,2013-11-12 14:20:00,
2013-11-12 08:35:00,30.9,20.5,30.75,NNE,22,12.5,-999.0,65,-99.99,,,0.00,Acu-Link.com,2013-11-12 14:35:00,
2013-11-12 08:51:00,31.1,20.7,30.76,NNE,22,15.0,-999.0,65,-99.99,,,0.00,Acu-Link.com,2013-11-12 14:51:00,
2013-11-12 09:06:00,30.9,20.5,30.77,North,0,14.0,-999.0,65,-99.99,,,0.00,Acu-Link.com,2013-11-12 15:06:00,
2013-11-12 09:21:00,31.5,20.7,30.78,NNW,337,9.9,-999.0,64,-99.99,,,0.00,Acu-Link.com,2013-11-12 15:21:00,
2013-11-12 09:36:00,32.0,21.2,30.77,NNE,22,9.4,-999.0,64,-99.99,,,0.00,Acu-Link.com,2013-11-12 15:36:00,
2013-11-12 09:51:00,32.7,20.8,30.78,NNE,22,9.9,-999.0,61,-99.99,,,0.00,Acu-Link.com,2013-11-12 15:51:00,
2013-11-12 10:06:00,33.4,20.6,30.78,NE,45,8.3,-999.0,59,-99.99,,,0.00,Acu-Link.com,2013-11-12 16:06:00,
2013-11-12 10:21:00,34.0,20.8,30.78,NNE,22,14.5,-999.0,58,-99.99,,,0.00,Acu-Link.com,2013-11-12 16:21:00,
2013-11-12 10:36:00,33.8,20.6,30.78,NNE,22,8.9,-999.0,58,-99.99,,,0.00,Acu-Link.com,2013-11-12 16:36:00,
2013-11-12 10:52:00,34.5,20.9,30.78,NNE,22,11.4,-999.0,57,-99.99,,,0.00,Acu-Link.com,2013-11-12 16:52:00,
2013-11-12 11:07:00,34.5,20.0,30.78,North,0,10.4,-999.0,55,-99.99,,,0.00,Acu-Link.com,2013-11-12 17:07:00,
2013-11-12 11:22:00,36.3,20.8,30.78,NNE,22,11.4,-999.0,53,-99.99,,,0.00,Acu-Link.com,2013-11-12 17:22:00,
2013-11-12 11:37:00,36.1,20.6,30.78,NNE,22,8.9,-999.0,53,-99.99,,,0.00,Acu-Link.com,2013-11-12 17:37:00,
2013-11-12 11:52:00,36.9,20.5,30.77,NNE,22,14.0,-999.0,51,-99.99,,,0.00,Acu-Link.com,2013-11-12 17:52:00,
2013-11-12 12:07:00,37.6,20.2,30.77,NE,45,16.1,-999.0,49,-99.99,,,0.00,Acu-Link.com,2013-11-12 18:07:00,
2013-11-12 12:23:00,37.9,19.5,30.76,North,0,17.1,-999.0,47,-99.99,,,0.00,Acu-Link.com,2013-11-12 18:23:00,
2013-11-12 12:38:00,38.7,19.7,30.75,NNE,22,15.5,-999.0,46,-99.99,,,0.00,Acu-Link.com,2013-11-12 18:38:00,
2013-11-12 12:53:00,38.7,19.2,30.75,NNE,22,16.6,-999.0,45,-99.99,,,0.00,Acu-Link.com,2013-11-12 18:53:00,
2013-11-12 13:08:00,38.7,19.2,30.74,NNE,22,9.9,-999.0,45,-99.99,,,0.00,Acu-Link.com,2013-11-12 19:08:00,
2013-11-12 13:23:00,39.4,18.8,30.74,NE,45,9.9,-999.0,43,-99.99,,,0.00,Acu-Link.com,2013-11-12 19:23:00,
2013-11-12 13:38:00,39.9,19.8,30.73,NNE,22,14.0,-999.0,44,-99.99,,,0.00,Acu-Link.com,2013-11-12 19:38:00,
2013-11-12 13:53:00,39.7,18.5,30.73,NNE,22,11.4,-999.0,42,-99.99,,,0.00,Acu-Link.com,2013-11-12 19:53:00,
2013-11-12 14:08:00,39.7,18.5,30.72,North,0,10.9,-999.0,42,-99.99,,,0.00,Acu-Link.com,2013-11-12 20:08:00,
2013-11-12 14:23:00,40.6,18.8,30.71,NNE,22,10.4,-999.0,41,-99.99,,,0.00,Acu-Link.com,2013-11-12 20:23:00,
2013-11-12 14:39:00,40.6,18.2,30.71,NNE,22,9.4,-999.0,40,-99.99,,,0.00,Acu-Link.com,2013-11-12 20:39:00,
2013-11-12 14:54:00,40.5,16.9,30.71,NNE,22,8.9,-999.0,38,-99.99,,,0.00,Acu-Link.com,2013-11-12 20:54:00,
2013-11-12 15:09:00,40.3,17.9,30.70,NE,45,6.8,-999.0,40,-99.99,,,0.00,Acu-Link.com,2013-11-12 21:09:00,
2013-11-12 15:24:00,40.1,17.2,30.70,NNW,337,7.3,-999.0,39,-99.99,,,0.00,Acu-Link.com,2013-11-12 21:24:00,
2013-11-12 15:39:00,40.5,17.5,30.70,NE,45,5.8,-999.0,39,-99.99,,,0.00,Acu-Link.com,2013-11-12 21:39:00,
2013-11-12 15:54:00,39.7,17.4,30.69,North,0,9.4,-999.0,40,-99.99,,,0.00,Acu-Link.com,2013-11-12 21:54:00,
2013-11-12 16:09:00,39.2,16.9,30.69,NNE,22,8.3,-999.0,40,-99.99,,,0.00,Acu-Link.com,2013-11-12 22:09:00,
2013-11-12 16:24:00,38.8,17.1,30.69,NNE,22,6.3,-999.0,41,-99.99,,,0.00,Acu-Link.com,2013-11-12 22:24:00,
2013-11-12 16:39:00,38.7,17.1,30.69,NE,45,5.8,-999.0,41,-99.99,,,0.00,Acu-Link.com,2013-11-12 22:39:00,
2013-11-12 16:55:00,37.6,16.6,30.69,NNE,22,5.8,-999.0,42,-99.99,,,0.00,Acu-Link.com,2013-11-12 22:55:00,
2013-11-12 17:10:00,36.0,16.7,30.70,NNE,22,5.3,-999.0,45,-99.99,,,0.00,Acu-Link.com,2013-11-12 23:10:00,
2013-11-12 17:25:00,34.7,17.0,30.69,NNE,22,4.2,-999.0,48,-99.99,,,0.00,Acu-Link.com,2013-11-12 23:25:00,
2013-11-12 17:40:00,33.6,17.0,30.69,NNE,22,4.2,-999.0,50,-99.99,,,0.00,Acu-Link.com,2013-11-12 23:40:00,
2013-11-12 17:55:00,32.7,17.5,30.69,NNE,22,4.7,-999.0,53,-99.99,,,0.00,Acu-Link.com,2013-11-12 23:55:00,
2013-11-12 18:10:00,32.4,17.2,30.69,NNE,22,3.2,-999.0,53,-99.99,,,0.00,Acu-Link.com,2013-11-13 00:10:00,
2013-11-12 18:25:00,31.3,17.4,30.69,NNE,22,3.7,-999.0,56,-99.99,,,0.00,Acu-Link.com,2013-11-13 00:25:00,
2013-11-12 18:40:00,30.0,18.2,30.70,NNE,22,2.7,-999.0,61,-99.99,,,0.00,Acu-Link.com,2013-11-13 00:40:00,
2013-11-12 18:55:00,29.1,18.1,30.70,NNE,22,0.0,-999.0,63,-99.99,,,0.00,Acu-Link.com,2013-11-13 00:55:00,
2013-11-12 19:11:00,29.3,17.9,30.70,NNE,22,0.0,-999.0,62,-99.99,,,0.00,Acu-Link.com,2013-11-13 01:11:00,
2013-11-12 19:26:00,27.7,18.2,30.70,NNE,22,1.7,-999.0,67,-99.99,,,0.00,Acu-Link.com,2013-11-13 01:26:00,
2013-11-12 19:41:00,28.4,17.4,30.69,NNE,22,2.7,-999.0,63,-99.99,,,0.00,Acu-Link.com,2013-11-13 01:41:00,
2013-11-12 19:56:00,27.5,18.0,30.70,NNE,22,1.7,-999.0,67,-99.99,,,0.00,Acu-Link.com,2013-11-13 01:56:00,
2013-11-12 20:11:00,25.9,17.5,30.70,NNE,22,1.7,-999.0,70,-99.99,,,0.00,Acu-Link.com,2013-11-13 02:11:00,
2013-11-12 20:26:00,25.5,17.4,30.70,NNE,22,0.0,-999.0,71,-99.99,,,0.00,Acu-Link.com,2013-11-13 02:26:00,
2013-11-12 20:41:00,24.6,17.2,30.70,NNE,22,0.0,-999.0,73,-99.99,,,0.00,Acu-Link.com,2013-11-13 02:41:00,
2013-11-12 20:56:00,25.5,18.1,30.70,NNE,22,0.0,-999.0,73,-99.99,,,0.00,Acu-Link.com,2013-11-13 02:56:00,
2013-11-12 21:11:00,24.4,16.7,30.70,NNE,22,0.0,-999.0,72,-99.99,,,0.00,Acu-Link.com,2013-11-13 03:11:00,
2013-11-12 21:27:00,22.6,15.9,30.70,NNE,22,0.0,-999.0,75,-99.99,,,0.00,Acu-Link.com,2013-11-13 03:27:00,
2013-11-12 21:42:00,23.2,17.1,30.70,NNE,22,0.0,-999.0,77,-99.99,,,0.00,Acu-Link.com,2013-11-13 03:42:00,
2013-11-12 21:57:00,23.2,17.4,30.70,NNE,22,0.0,-999.0,78,-99.99,,,0.00,Acu-Link.com,2013-11-13 03:57:00,
2013-11-12 22:12:00,22.3,17.4,30.71,NNE,22,0.0,-999.0,81,-99.99,,,0.00,Acu-Link.com,2013-11-13 04:12:00,
2013-11-12 22:27:00,21.7,17.1,30.70,NNE,22,0.0,-999.0,82,-99.99,,,0.00,Acu-Link.com,2013-11-13 04:27:00,
2013-11-12 22:42:00,20.8,16.5,30.69,NNE,22,0.0,-999.0,83,-99.99,,,0.00,Acu-Link.com,2013-11-13 04:42:00,
2013-11-12 22:57:00,20.5,16.2,30.70,NNE,22,0.0,-999.0,83,-99.99,,,0.00,Acu-Link.com,2013-11-13 04:57:00,
2013-11-12 23:12:00,21.2,17.1,30.69,NNE,22,0.0,-999.0,84,-99.99,,,0.00,Acu-Link.com,2013-11-13 05:12:00,
2013-11-12 23:27:00,21.0,16.7,30.69,NNE,22,0.0,-999.0,83,-99.99,,,0.00,Acu-Link.com,2013-11-13 05:27:00,
2013-11-12 23:43:00,20.5,16.4,30.69,NNE,22,0.0,-999.0,84,-99.99,,,0.00,Acu-Link.com,2013-11-13 05:43:00,
2013-11-12 23:58:00,20.3,16.5,30.69,NNE,22,0.0,-999.0,85,-99.99,,,0.00,Acu-Link.com,2013-11-13 05:58:00,